Location: Ecklingerode
(51.5036°N, 10.3122°E)
Time: 00:51:38
(UTC+00:00)

SKYMED 3 - Pass Details

Date: 29 October 2020
Orbit: 621 x 623 km, 97.9° (Epoch: 23 November)

Event Time Altitude Azimuth Distance (km) Brightness Sun altitude
Rises 17:24:01 0° 16° (NNE) 2,917 7.8 -14.1°
Reaches altitude 10° 17:26:14 10° 19° (NNE) 2,005 7.0 -14.4°
Maximum altitude 17:30:35 67° 102° (ESE) 677 4.5 -15.1°
Drops below altitude 10° 17:34:54 10° 186° (S) 1,988 7.3 -15.8°
Sets 17:37:05 0° 189° (S) 2,889 8.1 -16.1°
